Terminal Aerodrome Forecast
Issued by NWS

Home | Current Version | Previous Version | Text Only | Print | Product List | Glossary On
Versions: 1 2 3 4 5 6 7 8 9 10 11 12 13 14 15 16 17 18 19 20 21 22 23 24 25 26
000
FTPA31 PHFO 311100
TAFKOA
TAF
PHKO 311123Z 3112/0112 11008KT P6SM SCT025
     FM311800 34012KT P6SM SCT060
     FM312200 32018G28KT P6SM SCT060=

USA.gov is the U.S. government's official web portal to all federal, state and local government web resources and services.